EW7999 Weather Reports


time (UTC)temp
C
wind
direction
speed
KPH
gust
KPH
rain 1hr
cm
rain 24hr
cm
rain mn
cm
humidity
%
barometer
mb
20260505054509 20 258 3.2 16.1 0.00 0.00 0.00 72 999.4
20260505053014 21 194 4.8 17.7 0.00 0.00 0.00 72 999.5
20260505051517 21 307 1.6 6.4 0.00 0.00 0.00 69 999.3
20260505041600 21 100 0.0 3.2 0.00 0.00 0.00 73 999.2
20260505040059 21 100 0.0 4.8 0.00 0.00 0.00 73 999.1
20260505034558 22 167 1.6 6.4 0.00 0.00 0.00 71 999.2
20260505033057 22 295 0.0 6.4 0.00 0.00 0.00 69 999.1
20260505031556 22 178 0.0 8.0 0.00 0.00 0.00 68 999.5
20260505030056 22 326 0.0 6.4 0.00 0.00 0.00 67 999.5
20260505024556 23 109 1.6 9.7 0.00 0.00 0.00 66 999.7
20260505023058 23 259 0.0 6.4 0.00 0.00 0.00 65 999.4
20260505021554 23 184 1.6 9.7 0.00 0.00 0.00 64 999.4
20260505020055 23 200 1.6 11.3 0.00 0.00 0.00 63 1000.0
20260505014653 23 254 0.0 4.8 0.00 0.00 0.00 61 999.2
20260505013055 23 142 0.0 3.2 0.00 0.00 0.00 59 999.0
20260505011554 24 100 0.0 3.2 0.00 0.00 0.00 57 998.9
20260505010109 24 108 3.2 8.0 0.00 0.00 0.00 56 998.6
20260505004551 25 118 0.0 8.0 0.00 0.00 0.00 55 998.6
20260505003054 25 246 3.2 11.3 0.00 0.00 0.00 53 998.8
20260505001549 26 290 1.6 6.4 0.00 0.00 0.00 51 998.7
20260505000049 26 294 0.0 8.0 0.00 0.00 0.00 50 998.9
20260504234546 26 249 0.0 8.0 0.00 0.00 0.00 49 999.0
20260504233044 26 107 3.2 14.5 0.00 0.00 0.00 48 999.0
20260504231546 27 246 1.6 22.5 0.00 0.00 0.00 46 999.1
20260504230046 27 267 3.2 12.9 0.00 0.00 0.00 45 999.1
20260504224543 27 284 1.6 9.7 0.00 0.00 0.00 43 999.1
20260504223057 28 251 3.2 14.5 0.00 0.00 0.00 42 999.1
20260504221555 28 237 1.6 6.4 0.00 0.00 0.00 42 999.1
20260504220042 28 260 3.2 11.3 0.00 0.00 0.00 40 999.2
20260504214539 29 167 3.2 14.5 0.00 0.00 0.00 40 999.3
20260504213052 29 285 3.2 12.9 0.00 0.00 0.00 39 999.3
20260504211540 29 277 3.2 12.9 0.00 0.00 0.00 39 999.5
20260504210034 29 257 1.6 8.0 0.00 0.00 0.00 39 999.7
20260504204533 30 275 1.6 8.0 0.00 0.00 0.00 37 999.9
20260504203044 30 258 1.6 12.9 0.00 0.00 0.00 36 999.9
20260504201531 30 267 4.8 12.9 0.00 0.00 0.00 36 1000.2
20260504200030 31 285 0.0 6.4 0.00 0.00 0.00 35 1000.3
20260504194534 31 269 1.6 8.0 0.00 0.00 0.00 34 1000.5
20260504193024 31 185 3.2 14.5 0.00 0.00 0.00 34 1000.6
20260504191532 30 320 0.0 4.8 0.00 0.00 0.00 36 1000.8
20260504190020 30 282 0.0 8.0 0.00 0.00 0.00 35 1000.9
20260504184519 30 277 3.2 9.7 0.00 0.00 0.00 36 1001.0
20260504183014 30 292 0.0 8.0 0.00 0.00 0.00 37 1001.1
20260504181516 28 302 0.0 4.8 0.00 0.00 0.00 38 1001.5
20260504180015 28 308 0.0 4.8 0.00 0.00 0.00 37 1001.7
20260504174507 28 296 1.6 4.8 0.00 0.00 0.00 38 1001.8
20260504173003 27 287 0.0 4.8 0.00 0.00 0.00 40 1001.8
20260504171501 27 278 0.0 8.0 0.00 0.00 0.00 41 1001.8
20260504081553 18 317 1.6 9.7 0.00 0.00 0.00 48 1004.8
20260504080110 19 313 0.0 12.9 0.00 0.00 0.00 48 1005.0